Location: Dob?e?
(49.9411°N, 15.1496°E)
Time: 12:26:44
(UTC+00:00)

DELFI C3 - Pass Details

Date: 24 October 2021
Orbit: 529 x 543 km, 97.4° (Epoch: 29 November)

Event Time Altitude Azimuth Distance (km) Brightness Sun altitude
Exits shadow 16:55:18 16° 91° (E) 1,441 ? -11.0°
Maximum altitude 16:56:44 19° 63° (ENE) 1,297 ? -11.3°
Drops below altitude 10° 16:59:31 10° 17° (NNE) 1,790 ? -11.7°
Sets 17:02:04 0° 360° (N) 2,686 ? -12.1°
